Regional Weather Roundup
Issued by NWS Kansas City/Pleasant Hill, MO

Home | Current Version | Previous Version | Graphics & Text | Print | Product List | Glossary Off
Versions: 1 2 3 4 5 6 7 8 9 10 11 12 13 14 15 16 17 18 19 20 21 22 23 24 25 26 27 28 29 30 31 32 33 34 35 36 37 38 39 40 41 42 43 44 45 46 47 48 49 50

000
ASUS43 KEAX 250210
RWREAX

WEATHER ROUNDUP FOR EASTERN KANSAS AND NORTHWEST MISSOURI
NATIONAL WEATHER SERVICE KANSAS CITY/PLEASANT HILL MO
900 PM CDT SAT JUN 24 2017

KSZ040-057-103>105-MOZ028-029-037-043-250300-
...KANSAS CITY METROPOLITAN AREA...

CITY           SKY/WX    TMP DP  RH WIND       PRES   REMARKS
K.C. INTL      CLOUDY    70  50  49 SW5       30.16S
K.C. DOWNTOWN  CLEAR     75  44  33 W3        30.15S
LEES SUMMIT    PTCLDY    72  48  42 CALM      30.17S
OLATHE - IXD   CLOUDY    73  46  38 CALM      30.18S
OLATHE - OJC   CLOUDY    74  44  34 CALM      30.17S
LAWRENCE       PTCLDY    67  59  75 CALM      30.16S

$$

MOZ001>008-011>017-020>025-030>033-038>040-044>046-053-054-250300-
...NORTHERN AND CENTRAL MISSOURI...

CITY           SKY/WX    TMP DP  RH WIND       PRES   REMARKS
ST. JOSEPH     PTCLDY    72  51  47 W7        30.14S
MOSBY          CLOUDY    68  55  64 CALM      30.15S
WARRENSBURG    CLOUDY    70  52  52 S5        30.17R
WHITEMAN AFB   NOT AVBL
CLINTON        CLEAR     66  52  59 CALM      30.19R
SEDALIA        CLOUDY    71  52  50 CALM      30.18S
WARSAW         NOT AVBL
CHILLICOTHE      N/A     68  48  48 CALM      30.14S
KIRKSVILLE     CLEAR     67  47  48 SW3       30.13S

$$

MOZ041-047>049-056>058-063>065-088>090-097-250300-
...EASTERN AND SOUTHERN MISSOURI...

CITY           SKY/WX    TMP DP  RH WIND       PRES   REMARKS
ST. LOUIS INTL PTCLDY    72  45  37 CALM      30.16R
SPIRIT OF STL  CLEAR     65  52  62 CALM      30.16R
COLUMBIA       MOCLDY    67  52  58 SW3       30.17S
JEFFERSON CITY CLEAR     68  51  54 CALM      30.16S
ROLLA          CLEAR     64  50  60 CALM      30.18R
OSAGE BEACH    CLEAR     64  54  69 CALM      30.20R
SPRINGFIELD    CLEAR     71  50  47 N6        30.20R
BRANSON        PTCLDY    66  57  72 CALM      30.21R
JOPLIN         CLEAR     70  52  52 N5        30.20R
WEST PLAINS    CLEAR     69  52  54 N5        30.20R

$$

IAZ060-094-KSZ022-034>040-054-083-096-NEZ052-066-093-250300-
...KANSAS...SOUTHEAST NEBRASKA AND IOWA...

CITY           SKY/WX    TMP DP  RH WIND       PRES   REMARKS
TOPEKA         CLOUDY    74  47  38 W3        30.17R
MANHATTAN      CLOUDY    71  55  56 CALM      30.18R
EMPORIA        CLEAR     69  49  48 NE7       30.19R
CHANUTE        MOCLDY    73  45  36 E5        30.19R
WICHITA        PTCLDY    75  54  47 E7        30.18R
OMAHA          PTCLDY    69  45  41 NW7       30.13R
LINCOLN        MOCLDY    74  42  31 W7        30.17R
FALLS CITY     CLOUDY    71  44  37 W10       30.14S
LAMONI         CLEAR     68  49  50 W6        30.12R
DES MOINES     PTCLDY    72  40  31 NW10      30.09R

$$




USA.gov is the U.S. government's official web portal to all federal, state and local government web resources and services.